Location: Stavanger
(58.9670°N, 5.7500°E)
Time: 23:30:53
(UTC+02:00)

ISS - Visible Passes

Search period start: 23 September 2018 00:00
Search period end: 03 October 2018 00:00
Orbit: 403 x 408 km, 51.6° (Epoch: 23 September)

Date Brightness Start Highest point End Pass type
(mag) Time Alt. Az. Time Alt. Az. Time Alt. Az.
25 Sep -1.7 21:04:29 10° S 21:05:59 14° SSE 21:05:59 14° SSE visible
26 Sep -1.5 20:13:57 10° SSE 20:14:38 10° SSE 20:15:20 10° SE visible
26 Sep -1.7 21:47:43 10° SW 21:48:57 17° SSW 21:48:57 17° SSW visible
27 Sep -2.1 20:56:12 10° SSW 20:58:33 18° SSE 20:59:06 18° SSE visible
27 Sep -0.9 22:31:43 10° WSW 22:31:47 10° WSW 22:31:47 10° WSW visible
28 Sep -1.7 20:04:52 10° SSW 20:06:52 15° SSE 20:08:51 10° ESE visible
28 Sep -2.0 21:39:57 10° SW 21:41:52 21° SSW 21:41:52 21° SSW visible
29 Sep -2.2 20:48:16 10° SW 20:50:52 22° S 20:51:54 19° SE visible
29 Sep -1.0 22:24:09 10° WSW 22:24:34 12° WSW 22:24:34 12° WSW visible
30 Sep -2.0 19:56:39 10° SSW 19:59:07 19° SSE 20:01:33 10° ESE visible
30 Sep -2.1 21:32:16 10° WSW 21:34:34 22° SSW 21:34:34 22° SSW visible
01 Oct -2.2 20:40:27 10° SW 20:43:09 23° S 20:44:32 18° SE visible
01 Oct -1.0 22:16:43 10° WSW 22:17:12 12° SW 22:17:12 12° SW visible
02 Oct -2.1 19:48:42 10° SW 19:51:20 22° S 19:53:59 10° ESE visible
02 Oct -1.9 21:24:41 10° WSW 21:27:09 20° SSW 21:27:09 20° SSW visible
